1484564401.04,39311,5.25,72594.5,-12.13,-15.71,-15.71,0,*68
1484564402.28,39312,5.25,72592.0,-12.13,-15.71,-15.85,0,*60
1484564403.52,39313,5.25,72590.3,-12.13,-15.81,-15.71,0,*65
1484564404.75,39314,5.25,72592.8,-12.13,-15.71,-15.85,0,*66
1484564405.97,39315,5.25,72592.5,-12.13,-15.71,-15.71,0,*6C
1484564407.21,39316,5.25,72594.5,-12.13,-15.71,-15.85,0,*64
1484564408.47,39317,5.25,72594.5,-12.13,-15.81,-15.85,0,*6A
1484564409.68,39318,5.25,72594.0,-12.13,-15.71,-15.71,0,*61
1484564410.92,39319,5.25,72592.5,-12.17,-15.75,-15.89,0,*67
1484564412.17,39320,5.25,72594.8,-12.13,-15.71,-15.85,0,*61
1484564413.4,39321,5.25,72592.5,-12.13,-15.67,-15.85,0,*67
1484564414.64,39322,5.25,72594.8,-12.13,-15.71,-15.89,0,*6F
1484564415.88,39323,5.25,72594.3,-12.13,-15.71,-15.85,0,*62
1484564417.09,39324,5.25,72594.0,-12.17,-15.71,-15.71,0,*6A
1484564418.36,39325,5.25,72592.8,-12.11,-15.71,-15.85,0,*66
1484564419.6,39326,5.25,72592.3,-12.13,-15.71,-15.85,0,*67
1484564420.81,39327,5.25,72594.3,-12.13,-15.71,-15.71,0,*6D
1484564422.05,39328,5.25,72592.5,-12.13,-15.71,-15.85,0,*69
1484564423.27,39329,5.25,72594.0,-12.13,-15.71,-15.71,0,*63
1484564424.48,39330,5.25,72592.8,-12.13,-15.71,-15.71,0,*6B
1484564425.74,39331,5.25,72594.3,-12.13,-15.81,-15.85,0,*6E
1484564426.98,39332,5.31,72598.3,-12.13,-15.71,-15.85,0,*62
1484564428.24,39333,5.25,72594.0,-12.13,-15.81,-15.89,0,*60
1484564429.51,39334,5.25,72592.8,-12.17,-15.89,-15.89,0,*6B
1484564430.72,39335,5.25,72592.3,-12.13,-15.71,-15.71,0,*6E
1484564431.94,39336,5.25,72590.5,-12.17,-15.75,-15.95,0,*67
1484564433.18,39337,5.25,72592.3,-12.17,-15.85,-15.95,0,*69
1484564434.42,39338,5.25,72594.5,-12.13,-15.81,-15.71,0,*6C
1484564435.66,39339,5.25,72592.8,-12.17,-15.75,-15.89,0,*65
1484564436.9,39340,5.25,72592.3,-12.13,-15.71,-15.85,0,*67
1484564438.14,39341,5.25,72594.5,-12.17,-15.71,-15.89,0,*6E
1484564439.35,39342,5.25,72592.5,-12.13,-15.67,-15.71,0,*69
1484564440.59,39343,5.25,72594.3,-12.13,-15.67,-15.85,0,*63
1484564441.8,39344,5.25,72596.3,-12.13,-15.71,-15.67,0,*6F
1484564443.01,39345,5.25,72594.8,-12.17,-15.75,-15.95,0,*63
1484564444.26,39346,5.31,72598.3,-12.17,-15.75,-15.89,0,*6D
1484564445.47,39347,5.25,72594.5,-12.17,-15.75,-15.75,0,*6F
1484564446.69,39348,5.25,72594.3,-12.17,-15.75,-15.75,0,*60
1484564447.91,39349,5.25,72594.3,-12.17,-15.63,-15.75,0,*66
1484564449.11,39350,5.31,72598.8,-12.13,-15.67,-15.67,0,*6D
1484564450.33,39351,5.25,72594.5,-12.17,-15.71,-15.71,0,*68
1484564451.54,39352,5.25,72596.0,-12.17,-15.71,-15.71,0,*6B
1484564452.76,39353,5.31,72596.8,-12.17,-15.63,-15.71,0,*69
1484564453.97,39354,5.25,72594.8,-12.17,-15.63,-15.71,0,*6E
1484564455.18,39355,5.25,72596.0,-12.13,-15.67,-15.67,0,*68
1484564456.39,39356,5.31,72596.8,-12.13,-15.67,-15.71,0,*6C
1484564457.61,39357,5.25,72594.0,-12.17,-15.63,-15.75,0,*69
1484564458.84,39358,5.25,72592.0,-12.13,-15.57,-15.67,0,*66
1484564460.08,39359,5.25,72592.8,-12.13,-15.57,-15.71,0,*60
1484564461.31,39360,5.25,72592.5,-12.11,-15.67,-15.67,0,*6C
1484564462.53,39361,5.25,72594.0,-12.17,-15.63,-15.71,0,*68
1484564463.73,39362,5.25,72592.3,-12.13,-15.67,-15.67,0,*6C
1484564464.95,39363,5.25,72594.8,-12.17,-15.63,-15.71,0,*6A
1484564466.18,39364,5.31,72598.8,-12.13,-15.57,-15.67,0,*69
1484564467.39,39365,5.25,72592.5,-12.17,-15.71,-15.71,0,*6F
1484564468.6,39366,5.25,72594.5,-12.17,-15.71,-15.63,0,*6F
1484564469.84,39367,5.31,72598.8,-12.13,-15.57,-15.67,0,*6A
1484564471.07,39368,5.25,72592.5,-12.13,-15.57,-15.67,0,*65
1484564472.3,39369,5.25,72592.0,-12.13,-15.57,-15.67,0,*64
1484564473.53,39370,5.25,72594.5,-12.11,-15.67,-15.67,0,*6D
1484564474.74,39371,5.25,72592.8,-12.13,-15.67,-15.67,0,*6E
1484564475.95,39372,5.25,72592.8,-12.13,-15.63,-15.63,0,*6D
1484564477.19,39373,5.25,72594.8,-12.13,-15.57,-15.67,0,*6F
1484564478.4,39374,5.25,72592.0,-12.13,-15.63,-15.75,0,*6C
1484564479.61,39375,5.25,72592.5,-12.13,-15.67,-15.67,0,*6A
1484564480.82,39376,5.25,72594.3,-12.17,-15.67,-15.71,0,*6A
1484564482.08,39377,5.25,72594.5,-12.13,-15.57,-15.57,0,*68
1484564483.29,39378,5.25,72592.5,-12.13,-15.67,-15.67,0,*67
1484564484.5,39379,5.25,72592.3,-12.17,-15.71,-15.67,0,*65
1484564485.72,39380,5.25,72592.0,-12.13,-15.63,-15.75,0,*67
1484564486.93,39381,5.31,72596.3,-12.17,-15.67,-15.71,0,*62
1484564488.14,39382,5.31,72598.0,-12.17,-15.71,-15.71,0,*66
1484564489.36,39383,5.25,72596.0,-12.13,-15.71,-15.75,0,*67
1484564490.57,39384,5.25,72592.3,-12.13,-15.67,-15.67,0,*64
1484564491.78,39385,5.25,72594.5,-12.13,-15.71,-15.75,0,*61
1484564492.99,39386,5.25,72594.3,-12.17,-15.67,-15.71,0,*65
1484564494.21,39387,5.31,72594.5,-12.13,-15.67,-15.71,0,*60
1484564495.42,39388,5.31,72598.8,-12.13,-15.67,-15.71,0,*6F
1484564496.68,39389,5.25,72592.8,-12.17,-15.85,-15.89,0,*61
1484564497.93,39390,5.25,72594.3,-12.17,-15.75,-15.89,0,*66
1484564499.14,39391,5.25,72590.8,-12.13,-15.71,-15.71,0,*60
1484564500.38,39392,5.25,72594.5,-12.17,-15.71,-15.89,0,*60
1484564501.62,39393,5.25,72594.8,-12.17,-15.75,-15.89,0,*65
1484564502.86,39394,5.25,72594.5,-12.17,-15.85,-15.95,0,*60
1484564504.1,39395,5.25,72590.8,-12.17,-15.85,-16.03,0,*6D
1484564505.31,39396,5.25,72594.3,-12.17,-15.95,-16.03,0,*6F
1484564506.55,39397,5.25,72592.8,-12.17,-16.03,-16.09,0,*68
1484564507.76,39398,5.25,72594.0,-12.17,-15.95,-16.03,0,*61
1484564509.02,39399,5.25,72594.3,-12.17,-15.85,-15.89,0,*60
1484564510.24,39400,5.25,72592.5,-12.17,-15.75,-15.75,0,*6B
1484564511.46,39401,5.25,72594.3,-12.17,-15.71,-15.75,0,*6E
1484564512.7,39402,5.25,72588.8,-12.19,-15.75,-15.75,0,*67
1484564513.97,39403,5.31,72596.5,-12.19,-15.75,-15.81,0,*6D
1484564515.26,39404,5.31,72594.8,-12.19,-15.81,-15.81,0,*61
1484564516.48,39405,5.31,72598.0,-12.17,-15.75,-15.75,0,*6E
1484564517.7,39406,5.31,72596.5,-12.17,-15.71,-15.75,0,*69
1484564518.91,39407,5.31,72594.8,-12.17,-15.71,-15.71,0,*6C
1484564520.13,39408,5.31,72596.5,-12.17,-15.71,-15.75,0,*67
1484564521.37,39409,5.25,72592.0,-12.17,-15.75,-15.89,0,*61
1484564522.64,39410,5.25,72590.5,-12.19,-15.67,-15.81,0,*6C
1484564523.85,39411,5.25,72592.3,-12.17,-15.71,-15.75,0,*6F
1484564525.07,39412,5.25,72592.3,-12.17,-15.63,-15.75,0,*6F
1484564526.31,39413,5.25,72594.3,-12.19,-15.75,-15.75,0,*67
1484564527.53,39414,5.25,72592.0,-12.21,-15.75,-15.75,0,*6B
1484564528.77,39415,5.31,72598.0,-12.19,-15.75,-15.75,0,*61
1484564529.99,39416,5.31,72594.3,-12.21,-15.75,-15.75,0,*69
1484564531.24,39417,5.25,72592.8,-12.19,-15.75,-15.75,0,*63
1484564532.48,39418,5.31,72594.5,-12.19,-15.67,-15.75,0,*6F
1484564533.69,39419,5.25,72592.3,-12.17,-15.71,-15.63,0,*60
1484564534.91,39420,5.25,72594.8,-12.17,-15.63,-15.71,0,*6A
1484564536.15,39421,5.25,72592.5,-12.19,-15.75,-15.75,0,*66
1484564537.39,39422,5.31,72594.8,-12.19,-15.67,-15.75,0,*66
1484564538.64,39423,5.31,72592.8,-12.19,-15.75,-15.75,0,*64
1484564539.88,39424,5.31,72594.8,-12.19,-15.71,-15.63,0,*60
1484564541.09,39425,5.25,72592.0,-12.21,-15.67,-15.75,0,*6A
1484564542.33,39426,5.31,72596.3,-12.19,-15.67,-15.75,0,*62
1484564543.55,39427,5.31,72596.8,-12.17,-15.63,-15.71,0,*6D
1484564544.78,39428,5.25,72592.0,-12.19,-15.67,-15.67,0,*6F
1484564546.01,39429,5.25,72592.5,-12.19,-15.67,-15.67,0,*6E
1484564547.25,39430,5.31,72594.0,-12.19,-15.67,-15.67,0,*66
1484564548.49,39431,5.31,72596.0,-12.19,-15.67,-15.75,0,*64
1484564549.7,39432,5.31,72594.5,-12.21,-15.67,-15.67,0,*6F
1484564550.94,39433,5.31,72596.3,-12.19,-15.67,-15.75,0,*66
1484564552.18,39434,5.25,72594.8,-12.19,-15.67,-15.75,0,*61
1484564553.42,39435,5.25,72594.5,-12.19,-15.75,-15.67,0,*60
1484564554.63,39436,5.25,72592.3,-12.21,-15.75,-15.67,0,*68
1484564555.86,39437,5.31,72596.5,-12.19,-15.67,-15.67,0,*61
1484564557.08,39438,5.31,72594.5,-12.21,-15.67,-15.75,0,*66
1484564558.29,39439,5.25,72592.3,-12.21,-15.67,-15.67,0,*64
1484564559.5,39440,5.31,72596.0,-12.21,-15.67,-15.75,0,*69
1484564560.73,39441,5.31,72596.3,-12.19,-15.67,-15.67,0,*60
1484564561.97,39442,5.31,72598.8,-12.19,-15.67,-15.67,0,*63
1484564563.18,39443,5.31,72596.0,-12.21,-15.67,-15.67,0,*69
1484564564.38,39444,5.31,72596.3,-12.21,-15.67,-15.67,0,*6E
1484564565.62,39445,5.31,72594.0,-12.23,-15.67,-15.71,0,*6A
1484564566.83,39446,5.31,72596.8,-12.21,-15.63,-15.67,0,*68
1484564568.04,39447,5.31,72598.5,-12.21,-15.63,-15.67,0,*69
1484564569.27,39448,5.31,72594.8,-12.19,-15.63,-15.67,0,*6D
1484564570.51,39449,5.31,72598.8,-12.19,-15.63,-15.67,0,*6C
1484564571.72,39450,5.31,72598.8,-12.21,-15.63,-15.67,0,*6F
1484564572.93,39451,5.31,72598.5,-12.21,-15.53,-15.67,0,*6D
1484564574.14,39452,5.25,72594.8,-12.21,-15.63,-15.67,0,*6D
1484564575.37,39453,5.31,72598.0,-12.19,-15.63,-15.67,0,*67
1484564576.61,39454,5.31,72594.3,-12.23,-15.67,-15.71,0,*6A
1484564577.85,39455,5.31,72594.8,-12.19,-15.63,-15.63,0,*65
1484564579.06,39456,5.31,72596.8,-12.21,-15.63,-15.63,0,*6D
1484564580.28,39457,5.25,72590.8,-12.21,-15.53,-15.53,0,*6C
1484564581.5,39458,5.31,72592.8,-12.21,-15.53,-15.63,0,*60
1484564582.76,39459,5.31,72592.5,-12.23,-15.67,-15.57,0,*63
1484564583.97,39460,5.25,72592.3,-12.21,-15.53,-15.63,0,*6B
1484564585.21,39461,5.31,72598.0,-12.19,-15.63,-15.63,0,*62
1484564586.45,39462,5.31,72594.3,-12.19,-15.63,-15.63,0,*61
1484564587.66,39463,5.25,72592.0,-12.21,-15.63,-15.63,0,*6B
1484564588.87,39464,5.25,72592.3,-12.21,-15.53,-15.63,0,*6F
1484564590.11,39465,5.25,72592.0,-12.23,-15.67,-15.67,0,*6F
1484564591.34,39466,5.31,72596.0,-12.23,-15.67,-15.67,0,*6C
1484564592.59,39467,5.31,72594.5,-12.23,-15.57,-15.67,0,*6E
1484564593.81,39468,5.25,72592.0,-12.21,-15.63,-15.63,0,*60
1484564595.07,39469,5.25,72592.5,-12.23,-15.67,-15.57,0,*60
1484564596.32,39470,5.31,72594.0,-12.23,-15.57,-15.67,0,*68
1484564597.59,39471,5.31,72598.0,-12.23,-15.67,-15.57,0,*69
1484564598.82,39472,5.31,72596.8,-12.23,-15.67,-15.67,0,*69
1484564600.07,39473,5.25,72594.3,-12.23,-15.57,-15.67,0,*6B
1484564601.34,39474,5.31,72596.3,-12.23,-15.67,-15.57,0,*6C
1484564602.57,39475,5.31,72594.0,-12.23,-15.67,-15.67,0,*6E
1484564603.85,39476,5.25,72594.8,-12.23,-15.57,-15.57,0,*6D
1484564605.09,39477,5.31,72592.8,-12.23,-15.67,-15.67,0,*6C
1484564606.32,39478,5.31,72594.5,-12.23,-15.67,-15.67,0,*63
1484564607.57,39479,5.31,72594.5,-12.23,-15.57,-15.67,0,*61
1484564608.83,39480,5.25,72592.3,-12.23,-15.57,-15.67,0,*67
1484564610.08,39481,5.25,72592.5,-12.23,-15.57,-15.67,0,*66
1484564611.34,39482,5.31,72594.5,-12.23,-15.57,-15.67,0,*65
1484564612.6,39483,5.31,72598.0,-12.23,-15.57,-15.67,0,*64
1484564613.86,39484,5.31,72596.3,-12.23,-15.67,-15.57,0,*63
1484564615.09,39485,5.25,72592.3,-12.23,-15.67,-15.67,0,*61
1484564616.34,39486,5.25,72592.3,-12.23,-15.57,-15.67,0,*61
1484564617.58,39487,5.31,72596.8,-12.23,-15.67,-15.67,0,*63
1484564618.86,39488,5.31,72594.0,-12.23,-15.57,-15.57,0,*6C
1484564620.12,39489,5.31,72598.0,-12.23,-15.67,-15.57,0,*6E
1484564621.38,39490,5.31,72596.3,-12.23,-15.57,-15.67,0,*66
1484564622.67,39491,5.25,72592.8,-12.23,-15.57,-15.57,0,*64
1484564623.93,39492,5.31,72598.3,-12.23,-15.53,-15.57,0,*63
1484564625.19,39493,5.31,72594.5,-12.23,-15.57,-15.67,0,*65
1484564626.47,39494,5.31,72596.0,-12.23,-15.57,-15.57,0,*61
1484564627.76,39495,5.25,72594.5,-12.23,-15.57,-15.57,0,*60
1484564628.99,39496,5.31,72594.3,-12.23,-15.67,-15.67,0,*63
1484564630.22,39497,5.31,72596.0,-12.23,-15.67,-15.67,0,*62
1484564631.51,39498,5.31,72592.3,-12.23,-15.57,-15.57,0,*6D
1484564632.76,39499,5.31,72598.3,-12.23,-15.57,-15.67,0,*6F
1484564634.0,39500,5.25,72592.3,-12.23,-15.67,-15.67,0,*6D
1484564635.25,39501,5.31,72596.5,-12.23,-15.57,-15.67,0,*6F
1484564636.48,39502,5.25,72592.8,-12.23,-15.67,-15.67,0,*6F
1484564637.72,39503,5.25,72592.8,-12.23,-15.67,-15.67,0,*6E
1484564638.98,39504,5.31,72594.5,-12.23,-15.67,-15.57,0,*6A
1484564640.23,39505,5.31,72594.5,-12.23,-15.57,-15.67,0,*6B
1484564641.52,39506,5.31,72598.0,-12.23,-15.57,-15.57,0,*6B
1484564642.75,39507,5.31,72592.8,-12.23,-15.67,-15.67,0,*6A
1484564643.98,39508,5.25,72592.3,-12.23,-15.67,-15.67,0,*65
1484564645.21,39509,5.31,72592.0,-12.23,-15.67,-15.67,0,*64
1484564646.45,39510,5.31,72594.3,-12.23,-15.67,-15.67,0,*6C
1484564647.7,39511,5.31,72594.3,-12.23,-15.57,-15.67,0,*6E
1484564648.96,39512,5.31,72592.8,-12.23,-15.67,-15.57,0,*6D
1484564650.2,39513,5.31,72598.0,-12.27,-15.71,-15.71,0,*6B
1484564651.44,39514,5.25,72592.8,-12.27,-15.63,-15.63,0,*6C
1484564652.68,39515,5.31,72592.5,-12.27,-15.63,-15.71,0,*6E
1484564653.92,39516,5.31,72598.0,-12.23,-15.67,-15.67,0,*6A
1484564655.15,39517,5.31,72594.8,-12.23,-15.67,-15.67,0,*6B
1484564656.4,39518,5.31,72596.8,-12.23,-15.57,-15.67,0,*67
1484564657.64,39519,5.31,72592.0,-12.27,-15.71,-15.71,0,*61
1484564658.89,39520,5.31,72596.5,-12.27,-15.71,-15.71,0,*6B
1484564660.13,39521,5.25,72588.5,-12.27,-15.71,-15.71,0,*6A
1484564661.36,39522,5.31,72596.0,-12.23,-15.67,-15.67,0,*6D
1484564662.61,39523,5.31,72594.0,-12.23,-15.57,-15.67,0,*6F
1484564663.85,39524,5.31,72592.8,-12.27,-15.71,-15.71,0,*6F
1484564665.11,39525,5.31,72598.0,-12.23,-15.57,-15.67,0,*69
1484564666.34,39526,5.31,72594.8,-12.23,-15.67,-15.67,0,*69
1484564667.58,39527,5.31,72596.3,-12.27,-15.63,-15.71,0,*6F
1484564668.82,39528,5.31,72594.3,-12.27,-15.63,-15.63,0,*63
1484564670.06,39529,5.31,72596.8,-12.27,-15.71,-15.63,0,*61
1484564671.33,39530,5.31,72594.0,-12.27,-15.63,-15.57,0,*6D
1484564672.56,39531,5.31,72592.8,-12.27,-15.63,-15.63,0,*6B
1484564673.8,39532,5.31,72598.5,-12.29,-15.57,-15.63,0,*61
1484564675.05,39533,5.31,72592.8,-12.29,-15.63,-15.57,0,*60
1484564676.29,39534,5.31,72592.0,-12.29,-15.57,-15.49,0,*6F
1484564677.52,39535,5.31,72596.0,-12.29,-15.63,-15.49,0,*69
1484564678.76,39536,5.31,72594.3,-12.29,-15.49,-15.57,0,*6D
1484564680.02,39537,5.31,72596.0,-12.27,-15.57,-15.63,0,*6A
1484564681.23,39538,5.31,72596.3,-12.29,-15.63,-15.63,0,*6C
1484564682.5,39539,5.25,72592.5,-12.27,-15.57,-15.63,0,*64
1484564683.74,39540,5.25,72594.0,-12.29,-15.57,-15.71,0,*67
1484564684.98,39541,5.31,72596.0,-12.29,-15.57,-15.63,0,*65
1484564686.19,39542,5.31,72598.0,-12.29,-15.63,-15.63,0,*61
1484564687.41,39543,5.31,72594.5,-12.29,-15.71,-15.63,0,*63
1484564688.64,39544,5.31,72592.5,-12.27,-15.71,-15.63,0,*6A
1484564689.88,39545,5.31,72594.5,-12.27,-15.63,-15.63,0,*68
1484564691.15,39546,5.31,72596.3,-12.27,-15.57,-15.71,0,*6F
1484564692.37,39547,5.31,72594.3,-12.29,-15.63,-15.71,0,*67
1484564693.65,39548,5.31,72596.5,-12.27,-15.57,-15.57,0,*65
1484564694.92,39549,5.31,72594.3,-12.29,-15.57,-15.57,0,*6A
1484564696.21,39550,5.31,72594.5,-12.27,-15.57,-15.57,0,*6C
1484564697.45,39551,5.31,72596.3,-12.29,-15.57,-15.63,0,*64
1484564698.71,39552,5.31,72596.3,-12.29,-15.57,-15.57,0,*60
1484564699.98,39553,5.31,72594.8,-12.29,-15.57,-15.57,0,*61
1484564701.22,39554,5.31,72594.3,-12.29,-15.57,-15.49,0,*69
1484564702.46,39555,5.31,72592.5,-12.29,-15.49,-15.57,0,*68
1484564703.7,39556,5.31,72592.8,-12.27,-15.49,-15.63,0,*62
1484564704.95,39557,5.31,72592.3,-12.27,-15.49,-15.49,0,*6B
1484564706.19,39558,5.31,72592.3,-12.29,-15.49,-15.57,0,*65
1484564707.45,39559,5.31,72594.8,-12.29,-15.57,-15.57,0,*6B
1484564708.7,39560,5.31,72596.8,-12.29,-15.57,-15.49,0,*6E
1484564709.96,39561,5.31,72592.3,-12.29,-15.57,-15.57,0,*60
1484564711.21,39562,5.25,72590.5,-12.29,-15.63,-15.57,0,*64
1484564712.42,39563,5.31,72594.8,-12.29,-15.63,-15.63,0,*62
1484564713.68,39564,5.31,72596.0,-12.27,-15.57,-15.63,0,*6C
1484564714.95,39565,5.31,72594.8,-12.29,-15.57,-15.57,0,*64
1484564716.17,39566,5.25,72588.3,-12.29,-15.63,-15.63,0,*67
1484564717.38,39567,5.31,72592.8,-12.29,-15.63,-15.71,0,*65
1484564718.63,39568,5.25,72590.3,-12.29,-15.63,-15.57,0,*6E
1484564719.89,39569,5.31,72594.3,-12.29,-15.57,-15.57,0,*68
1484564721.13,39570,5.31,72594.3,-12.31,-15.53,-15.67,0,*6E
1484564722.38,39571,5.31,72592.0,-12.29,-15.63,-15.57,0,*66
1484564723.64,39572,5.31,72592.5,-12.29,-15.57,-15.57,0,*62
1484564724.9,39573,5.31,72594.5,-12.29,-15.57,-15.57,0,*63
1484564726.17,39574,5.31,72594.3,-12.29,-15.57,-15.57,0,*64
1484564727.41,39575,5.31,72594.3,-12.31,-15.63,-15.63,0,*6C
1484564728.66,39576,5.31,72592.3,-12.31,-15.63,-15.63,0,*6F
1484564729.87,39577,5.31,72592.0,-12.33,-15.63,-15.53,0,*6F
1484564731.12,39578,5.31,72592.0,-12.31,-15.63,-15.63,0,*61
1484564732.36,39579,5.31,72592.8,-12.31,-15.53,-15.63,0,*63
1484564733.6,39580,5.31,72594.0,-12.29,-15.49,-15.57,0,*60
1484564734.84,39581,5.31,72594.5,-12.31,-15.63,-15.67,0,*63
1484564736.05,39582,5.31,72596.8,-12.33,-15.63,-15.63,0,*66
1484564737.3,39583,5.25,72588.0,-12.31,-15.63,-15.63,0,*65
1484564738.51,39584,5.31,72594.0,-12.29,-15.49,-15.63,0,*63
1484564739.72,39585,5.31,72594.5,-12.33,-15.63,-15.63,0,*61
1484564740.97,39586,5.31,72592.5,-12.31,-15.63,-15.53,0,*63
1484564742.19,39587,5.31,72592.5,-12.33,-15.63,-15.53,0,*60
1484564743.4,39588,5.31,72594.8,-12.33,-15.63,-15.63,0,*6C
1484564744.65,39589,5.31,72592.5,-12.31,-15.53,-15.63,0,*6C
1484564745.89,39590,5.31,72594.5,-12.31,-15.63,-15.63,0,*67
1484564747.11,39591,5.31,72592.0,-12.33,-15.53,-15.63,0,*67
1484564748.35,39592,5.31,72592.0,-12.31,-15.63,-15.53,0,*66
1484564749.57,39593,5.31,72594.3,-12.33,-15.53,-15.63,0,*65
1484564750.82,39594,5.31,72594.0,-12.31,-15.53,-15.53,0,*63
1484564752.03,39595,5.31,72590.8,-12.33,-15.53,-15.63,0,*63
1484564753.28,39596,5.31,72592.5,-12.31,-15.53,-15.63,0,*62
1484564754.49,39597,5.31,72594.0,-12.33,-15.63,-15.63,0,*62
1484564755.73,39598,5.25,72590.5,-12.31,-15.53,-15.63,0,*6C
1484564756.95,39599,5.31,72594.5,-12.33,-15.53,-15.53,0,*6C
1484564758.16,39600,5.31,72592.3,-12.33,-15.67,-15.67,0,*6F
1484564759.4,39601,5.31,72590.3,-12.31,-15.67,-15.67,0,*6C
1484564760.61,39602,5.31,72594.0,-12.33,-15.75,-15.67,0,*6E
1484564761.82,39603,5.31,72594.8,-12.33,-15.67,-15.63,0,*68
1484564763.04,39604,5.25,72590.0,-12.33,-15.63,-15.63,0,*6B
1484564764.25,39605,5.31,72594.0,-12.33,-15.63,-15.63,0,*6A
1484564765.46,39606,5.31,72592.8,-12.33,-15.63,-15.63,0,*69
1484564766.67,39607,5.31,72590.5,-12.33,-15.67,-15.67,0,*68
1484564767.88,39608,5.31,72592.5,-12.33,-15.67,-15.67,0,*67
1484564769.12,39609,5.31,72598.0,-12.35,-15.67,-15.63,0,*64
1484564770.36,39610,5.31,72594.3,-12.35,-15.63,-15.63,0,*68
1484564771.6,39611,5.31,72594.3,-12.35,-15.63,-15.63,0,*69
1484564772.81,39612,5.31,72592.8,-12.33,-15.63,-15.63,0,*6C
1484564774.02,39613,5.31,72594.8,-12.33,-15.63,-15.63,0,*6D
1484564775.26,39614,5.31,72594.8,-12.35,-15.63,-15.67,0,*68
1484564776.47,39615,5.31,72592.5,-12.33,-15.67,-15.67,0,*6B
1484564777.68,39616,5.31,72592.5,-12.33,-15.67,-15.63,0,*6C
1484564778.88,39617,5.31,72594.0,-12.33,-15.67,-15.67,0,*69
1484564780.13,39618,5.31,72592.0,-12.35,-15.75,-15.63,0,*67
1484564781.37,39619,5.31,72594.0,-12.35,-15.67,-15.63,0,*65
1484564782.61,39620,5.31,72590.5,-12.35,-15.63,-15.63,0,*6B
1484564783.84,39621,5.31,72594.5,-12.35,-15.63,-15.63,0,*6A
1484564785.08,39622,5.31,72592.5,-12.35,-15.67,-15.67,0,*69
1484564786.33,39623,5.31,72594.5,-12.35,-15.63,-15.53,0,*6B
1484564787.57,39624,5.31,72594.8,-12.35,-15.63,-15.53,0,*6C
1484564788.81,39625,5.31,72594.0,-12.35,-15.53,-15.63,0,*6D
1484564790.02,39626,5.31,72592.3,-12.33,-15.63,-15.63,0,*6B
1484564791.29,39627,5.25,72590.5,-12.39,-15.81,-15.81,0,*60
1484564792.54,39628,5.31,72594.5,-12.35,-15.75,-15.75,0,*63
1484564793.78,39629,5.31,72592.0,-12.39,-15.81,-15.71,0,*61
1484564795.02,39630,5.31,72594.0,-12.35,-15.67,-15.53,0,*6D
1484564796.26,39631,5.31,72592.8,-12.35,-15.67,-15.63,0,*6F
1484564797.48,39632,5.31,72594.0,-12.39,-15.67,-15.71,0,*63
1484564798.69,39633,5.31,72592.5,-12.39,-15.67,-15.67,0,*65
1484564799.93,39634,5.31,72592.0,-12.35,-15.67,-15.63,0,*6A
1484564801.17,39635,5.31,72594.5,-12.35,-15.63,-15.53,0,*6C
1484564802.42,39636,5.31,72594.3,-12.35,-15.63,-15.53,0,*6F
1484564803.65,39637,5.31,72594.0,-12.35,-15.63,-15.63,0,*6D
1484564804.9,39638,5.31,72594.3,-12.39,-15.67,-15.57,0,*6D
1484564806.12,39639,5.31,72592.8,-12.39,-15.63,-15.53,0,*6C
1484564807.36,39640,5.31,72592.8,-12.35,-15.53,-15.53,0,*6D
1484564808.61,39641,5.31,72592.0,-12.39,-15.53,-15.57,0,*64
1484564809.85,39642,5.31,72590.3,-12.35,-15.53,-15.53,0,*6F
1484564811.09,39643,5.31,72592.3,-12.39,-15.67,-15.57,0,*61
1484564812.31,39644,5.31,72590.3,-12.39,-15.53,-15.53,0,*65
1484564813.56,39645,5.31,72588.0,-12.35,-15.49,-15.53,0,*63
1484564814.82,39646,5.31,72588.3,-12.39,-15.57,-15.57,0,*67
1484564816.07,39647,5.31,72590.0,-12.35,-15.53,-15.53,0,*6A
1484564817.31,39648,5.31,72590.5,-12.39,-15.57,-15.53,0,*6D
1484564818.58,39649,5.31,72588.5,-12.39,-15.57,-15.57,0,*68
1484564819.84,39650,5.31,72596.3,-12.39,-15.57,-15.57,0,*60
1484564821.06,39651,5.31,72594.0,-12.39,-15.53,-15.53,0,*61
1484564822.33,39652,5.31,72588.3,-12.39,-15.57,-15.43,0,*67
1484564823.6,39653,5.31,72592.8,-12.39,-15.57,-15.43,0,*66
1484564824.86,39654,5.31,72594.3,-12.41,-15.63,-15.57,0,*6C
1484564826.12,39655,5.31,72590.8,-12.39,-15.57,-15.57,0,*65
1484564827.33,39656,5.31,72594.3,-12.39,-15.53,-15.67,0,*61
1484564828.6,39657,5.31,72592.8,-12.41,-15.63,-15.57,0,*6F
1484564829.83,39658,5.31,72592.0,-12.41,-15.63,-15.63,0,*67
1484564831.09,39659,5.31,72592.0,-12.39,-15.57,-15.57,0,*69
1484564832.33,39660,5.31,72592.5,-12.39,-15.57,-15.67,0,*60
1484564833.54,39661,5.31,72594.0,-12.39,-15.71,-15.67,0,*65
1484564834.8,39662,5.31,72594.3,-12.39,-15.57,-15.57,0,*61
1484564836.04,39663,5.31,72588.8,-12.41,-15.71,-15.63,0,*6C
1484564837.27,39664,5.31,72592.8,-12.41,-15.63,-15.63,0,*68
1484564838.51,39665,5.31,72594.8,-12.41,-15.71,-15.71,0,*69
1484564839.74,39666,5.31,72594.5,-12.41,-15.71,-15.63,0,*69
1484564841.0,39667,5.31,72592.0,-12.41,-15.71,-15.57,0,*6F
1484564842.24,39668,5.31,72592.3,-12.41,-15.63,-15.63,0,*64
1484564843.48,39669,5.31,72598.3,-12.41,-15.63,-15.71,0,*66
1484564844.71,39670,5.31,72592.5,-12.41,-15.63,-15.63,0,*6D
1484564845.95,39671,5.31,72592.8,-12.41,-15.63,-15.63,0,*6C
1484564847.16,39672,5.25,72586.8,-12.43,-15.63,-15.63,0,*6D
1484564848.42,39673,5.31,72594.3,-12.41,-15.63,-15.57,0,*69
1484564849.66,39674,5.31,72594.8,-12.41,-15.63,-15.49,0,*61
1484564850.92,39675,5.31,72590.8,-12.41,-15.57,-15.63,0,*6F
1484564852.18,39676,5.31,72592.5,-12.43,-15.57,-15.57,0,*69
1484564853.4,39677,5.31,72588.8,-12.43,-15.63,-15.63,0,*68
1484564854.68,39678,5.31,72594.0,-12.41,-15.57,-15.57,0,*65
1484564855.97,39679,5.31,72590.3,-12.41,-15.57,-15.57,0,*64
1484564857.22,39680,5.31,72592.8,-12.41,-15.57,-15.63,0,*65
1484564858.46,39681,5.31,72588.3,-12.41,-15.71,-15.63,0,*60
1484564859.69,39682,5.31,72592.3,-12.41,-15.71,-15.63,0,*63
1484564860.91,39683,5.31,72590.5,-12.43,-15.71,-15.71,0,*63
1484564862.14,39684,5.31,72590.5,-12.41,-15.63,-15.63,0,*66
1484564863.39,39685,5.25,72590.0,-12.43,-15.63,-15.57,0,*62
1484564864.6,39686,5.31,72594.5,-12.43,-15.63,-15.63,0,*66
1484564865.83,39687,5.31,72592.3,-12.41,-15.63,-15.63,0,*65
1484564867.1,39688,5.31,72590.0,-12.43,-15.57,-15.57,0,*68
1484564868.36,39689,5.31,72588.0,-12.43,-15.57,-15.57,0,*69
1484564869.62,39690,5.31,72592.8,-12.43,-15.57,-15.57,0,*61
1484564870.89,39691,5.31,72592.0,-12.43,-15.57,-15.57,0,*60
1484564872.1,39692,5.31,72590.8,-12.43,-15.63,-15.63,0,*63
1484564873.34,39693,5.31,72594.3,-12.43,-15.71,-15.57,0,*66
1484564874.58,39694,5.31,72594.5,-12.43,-15.71,-15.57,0,*61
1484564875.82,39695,5.31,72592.0,-12.43,-15.63,-15.57,0,*63
1484564877.09,39696,5.31,72590.5,-12.43,-15.57,-15.57,0,*67
1484564878.35,39697,5.31,72588.8,-12.45,-15.63,-15.57,0,*67
1484564879.64,39698,5.31,72590.5,-12.45,-15.57,-15.57,0,*6F
1484564880.89,39699,5.31,72592.8,-12.43,-15.57,-15.49,0,*67
1484564882.14,39700,5.31,72590.0,-12.45,-15.63,-15.49,0,*67
1484564883.43,39701,5.31,72590.0,-12.45,-15.57,-15.57,0,*6E
1484564884.72,39702,5.31,72592.8,-12.45,-15.57,-15.57,0,*6D
1484564885.99,39703,5.31,72590.8,-12.45,-15.49,-15.57,0,*63
1484564887.23,39704,5.31,72590.0,-12.45,-15.63,-15.63,0,*6B
1484564888.52,39705,5.31,72592.3,-12.45,-15.57,-15.57,0,*6A
1484564889.76,39706,5.31,72592.0,-12.43,-15.57,-15.49,0,*60
1484564891.05,39707,5.31,72594.5,-12.45,-15.57,-15.57,0,*68
1484564892.29,39708,5.31,72590.5,-12.43,-15.63,-15.57,0,*66
1484564893.58,39709,5.31,72594.0,-12.45,-15.57,-15.57,0,*66
1484564894.86,39710,5.31,72590.3,-12.45,-15.57,-15.49,0,*61